Location: Mahannah Oil Field
(37.4664°N, 96.6003°W)
Time: 14:05:44
(UTC+00:00)

Vanguard 2 Rocket - Pass Details

Date: 25 January 2021
Orbit: 554 x 3325 km, 32.9° (Epoch: 06 March)

Event Time Altitude Azimuth Distance (km) Brightness Sun altitude
Rises 23:05:51 0° 261° (W) 6,292 12.8 5.8°
Reaches altitude 10° 23:10:41 10° 260° (W) 4,857 12.3 5.0°
Maximum altitude 23:22:59 67° 182° (S) 1,544 8.3 2.8°
Drops below altitude 10° 23:29:45 10° 101° (E) 2,777 8.9 1.6°
Sets 23:31:49 0° 98° (E) 3,496 9.4 1.2°
